Location: M?digepalle
(16.1753°N, 80.3496°E)
Time: 08:37:48
(UTC+00:00)

OAO 3 Rocket - Pass Details

Date: 29 October 2020
Orbit: 629 x 682 km, 35.0° (Epoch: 27 November)

Event Time Altitude Azimuth Distance (km) Brightness Sun altitude
Rises 13:41:32 0° 312° (NW) 2,960 7.1 -22.5°
Reaches altitude 10° 13:44:02 10° 320° (NW) 2,039 6.1 -23.1°
Enters shadow 13:47:31 35° 360° (N) 1,034 4.1 -23.9°
